Wind_Speed
29 29 28 27 27 27 27 24 21 20 18 17 16 15 15 17 19 19 18 16 15 16 18 19 19 20 20 21 22 23 24 24 24 23 22 21 21 20 19 17 16 15 13 12 11 10 9 9 8 7 7 6 6 6 5 5 5 5 5 5 5 6 7
33 31 30 30 31 30 28 26 24 22 20 19 18 16 14 14 17 19 19 18 17 17 17 17 18 18 17 17 18 20 22 24 25 25 24 23 22 21 20 19 18 17 15 14 14 13 11 10 10 9 8 8 7 7 6 6 6 6 6 6 6 6 7
35 34 34 34 35 33 29 27 26 24 22 21 19 17 15 13 14 17 19 19 18 18 17 18 18 18 17 17 17 17 20 23 25 26 25 24 22 21 19 19 18 18 17 16 15 15 14 13 12 11 10 9 9 8 8 7 7 7 7 7 7 7 7
38 38 37 36 36 33 29 28 28 26 24 23 21 18 16 15 15 16 19 20 20 19 19 19 18 18 18 18 18 17 18 21 24 25 26 25 24 22 21 20 19 19 17 17 16 16 16 15 14 13 12 11 11 10 10 9 9 9 9 8 8 8 8
41 40 39 37 35 32 30 29 29 28 26 24 22 20 19 18 17 17 18 20 22 22 21 19 17 17 18 19 19 19 19 20 22 24 25 26 27 26 25 23 22 20 18 18 18 17 17 16 15 14 13 12 12 12 12 11 11 10 10 10 9 9 9
43 41 40 38 35 34 34 34 32 30 27 25 23 21 20 20 18 18 18 19 20 21 22 21 20 19 19 20 22 22 22 22 22 23 24 26 28 28 27 26 24 23 21 20 19 18 17 16 16 15 14 14 14 14 13 13 12 12 12 12 11 11 10
45 43 41 39 37 36 36 36 35 33 29 26 24 22 22 22 20 20 19 19 19 20 22 23 23 23 22 22 23 24 25 25 24 23 23 24 26 28 28 28 27 26 24 23 21 20 19 17 17 16 16 15 15 15 15 14 14 14 14 14 13 13 12
47 45 43 41 38 37 37 38 38 38 33 28 26 25 25 24 22 21 20 19 18 19 21 22 23 24 24 24 24 24 25 26 26 26 25 24 25 26 27 29 29 28 27 25 24 22 21 19 19 18 17 17 16 16 16 16 16 16 16 16 15 15 15
50 48 46 44 42 39 39 40 39 38 35 30 28 28 27 25 24 22 20 19 19 19 20 21 21 22 24 24 24 24 24 25 26 27 27 27 26 26 26 27 28 28 28 26 25 25 23 22 21 20 19 18 17 17 17 17 18 18 18 18 17 17 17
53 51 49 48 46 43 42 40 38 37 36 33 31 31 29 27 26 24 22 21 21 20 20 20 20 21 23 24 25 24 24 24 26 27 28 28 28 27 26 26 26 27 28 27 27 26 25 24 23 22 20 19 18 18 18 19 19 20 19 19 19 19 18
56 54 53 51 49 47 45 43 39 37 38 37 35 33 31 30 29 26 25 24 22 20 20 21 21 21 22 23 24 24 24 25 25 26 27 29 29 29 28 27 27 27 27 27 27 27 27 26 25 23 22 20 20 20 20 20 20 21 21 21 21 20 20
57 56 55 54 52 50 47 45 41 38 39 40 37 34 33 32 31 29 27 26 23 21 21 22 22 22 22 22 23 25 26 26 26 27 28 28 28 29 29 29 29 28 27 26 27 27 27 26 25 24 23 22 21 21 21 21 21 21 22 22 22 22 22
58 58 57 55 53 51 47 45 42 40 41 41 38 36 35 34 32 30 29 27 24 23 23 23 23 23 23 22 23 24 26 27 28 28 29 28 27 27 28 30 30 30 29 28 28 28 27 27 26 24 24 23 23 23 23 23 22 22 23 23 24 24 24
63 63 63 60 57 54 49 47 46 45 45 43 41 38 37 35 34 32 29 27 25 24 24 24 25 25 24 23 24 24 26 27 28 29 29 28 27 27 27 29 30 31 30 30 29 29 28 28 26 25 25 25 25 25 25 24 23 22 23 24 25 25 25
67 66 65 61 56 53 50 49 48 48 46 44 42 40 39 38 36 34 31 29 28 27 27 26 26 26 26 25 26 26 25 26 27 28 29 29 28 28 28 29 30 30 31 31 31 30 29 29 28 27 27 27 27 27 27 26 25 24 24 25 25 26 26
68 67 62 58 55 52 51 50 49 48 47 45 43 42 41 40 38 36 34 32 31 30 29 28 28 27 27 27 27 26 25 24 25 26 28 29 29 30 29 30 30 30 31 32 32 31 31 30 29 29 28 28 28 29 28 28 27 25 26 26 26 26 26
69 66 62 59 56 54 52 52 51 50 49 47 46 45 44 43 41 39 37 35 34 33 31 30 30 29 29 28 28 27 25 25 25 25 27 28 30 30 30 30 30 30 31 32 32 32 33 32 32 31 30 29 30 30 30 29 28 27 28 28 28 27 27
68 66 62 59 57 55 54 54 53 53 52 50 49 48 47 45 43 41 39 37 36 35 34 33 33 32 31 29 29 28 26 26 25 25 26 28 30 31 31 31 31 31 31 32 32 33 33 34 34 34 32 32 32 32 32 31 30 29 29 30 29 29 29
67 64 62 59 58 57 56 55 55 55 54 53 52 50 49 48 45 43 42 40 39 38 37 36 35 33 32 30 30 29 28 27 27 26 26 28 30 31 31 32 33 34 34 33 33 33 33 34 35 35 34 34 34 34 33 33 32 31 31 31 31 30 30
69 66 64 62 60 58 57 57 58 58 57 56 54 53 52 50 47 45 43 41 39 38 37 37 35 34 33 32 32 31 30 29 28 28 28 29 30 31 32 34 35 36 36 35 34 35 35 35 36 36 36 36 37 37 35 35 34 33 33 33 32 32 31
71 68 67 65 62 61 60 60 59 59 59 58 57 55 54 51 49 46 44 42 41 39 39 38 37 36 35 34 34 33 31 31 31 30 30 30 31 31 33 35 36 37 37 37 37 37 37 37 37 37 37 38 38 38 37 37 37 36 35 35 34 34 34
75 70 68 67 64 63 62 61 60 60 61 60 59 57 54 53 51 48 45 44 43 41 40 39 38 38 37 36 36 35 34 33 33 33 32 32 32 33 34 35 37 38 38 38 38 38 38 37 37 38 39 39 39 38 38 39 39 38 38 37 37 37 37
78 73 69 68 67 66 64 62 61 62 62 62 60 58 56 55 52 49 47 45 44 42 41 40 40 40 39 39 38 37 36 36 36 35 35 34 34 35 36 36 37 38 38 39 39 40 40 39 38 37 37 38 38 39 39 39 40 40 40 40 40 40 40
79 76 72 69 68 67 67 65 63 65 65 63 61 59 57 55 52 50 48 47 45 44 43 42 43 42 42 41 40 39 39 39 38 37 37 36 36 36 37 37 38 38 38 39 39 40 41 41 40 38 36 35 35 36 38 39 40 41 42 42 43 43 43
75 75 73 71 69 67 67 66 67 68 67 65 62 60 58 55 52 51 50 48 47 46 45 45 45 45 45 44 43 42 41 41 40 39 38 38 38 37 37 38 38 38 38 39 39 41 42 42 42 41 40 37 35 34 35 37 40 42 43 44 44 45 45
77 76 74 72 70 68 68 68 69 70 69 67 64 62 59 56 54 53 52 50 49 48 48 48 48 48 47 46 44 43 43 43 42 41 39 39 39 38 38 38 38 39 39 39 40 41 42 43 43 43 43 41 38 36 35 35 38 41 43 44 45 46 46
82 79 76 74 72 70 70 70 71 71 70 68 65 62 59 56 55 55 54 52 51 51 51 51 50 49 48 48 47 46 46 45 43 42 40 40 39 39 39 39 39 39 40 40 40 41 42 42 43 44 44 43 42 40 38 36 37 40 42 43 45 46 47
83 82 80 77 74 73 72 72 72 72 71 68 65 62 59 57 57 58 57 54 53 55 54 52 51 50 51 50 50 48 47 46 44 43 41 41 40 40 40 40 40 40 41 41 41 41 42 42 42 43 45 45 45 44 43 40 39 39 41 43 46 47 48
84 83 82 79 77 75 74 73 73 73 71 68 65 62 60 60 61 60 59 56 56 57 55 53 52 52 53 52 51 49 47 46 45 43 42 41 41 40 40 40 40 41 42 41 41 41 41 41 42 44 45 46 47 47 47 46 44 43 42 43 45 47 49
85 84 83 82 79 77 76 75 75 74 71 69 66 65 64 64 63 63 61 58 57 57 56 54 53 53 53 53 51 49 47 46 45 44 42 41 41 40 40 41 41 41 42 41 41 41 41 41 42 44 45 47 48 49 49 49 49 48 47 45 44 45 46
87 85 84 82 80 79 78 77 76 74 72 69 68 67 67 66 65 65 63 59 58 59 58 56 54 54 54 54 52 50 48 47 45 44 43 42 41 41 41 41 41 42 42 42 42 42 42 42 42 43 45 47 49 50 51 51 51 50 50 49 47 45 45
88 86 84 82 81 81 80 78 76 74 71 70 69 69 68 68 67 66 63 60 59 60 60 57 55 55 55 54 53 51 49 47 45 44 43 42 42 41 42 42 42 43 43 42 42 42 42 43 43 44 45 47 48 50 51 52 52 52 51 51 49 48 48
90 87 85 83 82 82 81 79 76 73 72 71 71 70 69 68 67 66 63 61 61 62 60 58 57 57 57 55 54 52 49 47 46 45 44 43 42 42 42 43 43 44 44 43 43 43 43 43 44 44 45 46 47 49 50 52 53 53 53 52 51 50 49
91 88 86 83 82 82 81 79 76 75 73 72 70 70 70 69 68 67 65 63 63 63 61 60 59 58 57 56 54 52 50 48 47 46 45 44 44 43 43 44 44 44 45 44 44 44 44 44 44 45 46 46 47 48 50 52 53 54 53 53 53 52 50
92 89 86 85 83 82 81 79 78 76 74 73 71 71 71 71 69 68 67 66 65 64 63 62 61 60 58 56 54 52 50 48 47 46 46 45 45 45 45 45 46 46 45 45 45 45 45 45 45 46 47 47 48 48 50 52 53 54 54 53 53 52 50
92 90 87 85 84 83 81 79 78 77 75 74 74 72 71 70 70 69 67 66 65 65 64 63 63 61 59 57 54 52 51 49 48 48 47 47 47 47 47 47 47 46 46 45 45 45 46 45 46 47 48 48 49 50 51 52 53 53 53 52 52 51 50
92 90 88 86 83 82 81 79 78 77 76 75 74 73 72 71 70 69 68 67 66 65 65 65 64 62 60 57 55 53 51 50 49 49 49 48 48 48 48 48 47 46 45 45 45 46 46 46 47 48 49 49 51 51 51 51 51 52 52 52 51 51 51
93 90 88 87 83 79 78 78 77 76 77 76 75 74 73 72 71 70 68 68 67 67 67 66 65 63 61 58 56 53 51 51 51 51 51 50 49 50 49 48 47 46 45 46 46 46 46 46 47 48 49 50 51 52 51 50 50 50 51 51 51 52 53
Wind_Direction
199 201 201 205 205 200 203 209 217 224 224 228 231 222 205 191 186 188 191 189 190 199 203 202 204 211 218 221 221 219 214 212 212 212 214 215 217 218 219 223 225 226 227 230 233 235 235 236 234 235 237 240 242 245 253 266 283 295 303 309 317 325 331
197 199 199 203 208 206 205 208 213 219 221 224 228 227 220 204 191 189 190 190 190 194 202 205 207 210 213 219 223 222 219 215 214 215 216 216 216 218 221 225 229 231 233 235 238 240 243 243 243 244 246 250 254 255 260 269 281 292 299 304 313 321 328
197 199 200 202 206 206 203 207 213 216 219 222 226 228 226 219 205 193 189 192 193 193 197 203 207 210 212 215 218 221 222 220 218 218 218 219 219 219 223 230 234 235 237 239 242 244 245 246 246 247 250 255 259 260 263 268 275 285 292 296 303 311 320
199 201 202 204 207 206 203 208 217 218 217 221 224 224 224 223 215 204 194 193 194 196 198 200 204 208 211 213 214 216 220 223 224 223 222 221 221 223 228 233 235 236 238 241 244 244 244 246 247 248 250 255 261 263 264 267 272 279 285 289 295 301 309
203 203 204 205 208 208 205 210 221 223 219 220 223 222 222 221 219 215 207 200 198 199 200 199 199 206 211 214 213 213 216 222 226 228 228 227 226 227 230 232 233 233 236 241 243 243 243 245 247 249 250 254 259 262 264 267 270 276 281 284 288 293 299
207 207 207 206 208 209 206 208 218 225 224 222 222 222 224 225 224 223 220 215 208 204 201 199 198 201 207 211 213 213 214 218 223 227 230 231 232 231 231 232 232 231 232 238 242 242 241 243 245 248 250 252 257 260 263 266 269 273 277 280 283 286 291
209 211 211 210 210 212 210 207 212 220 225 225 223 221 224 226 227 226 225 226 221 213 207 204 203 202 203 207 211 213 213 216 219 223 227 231 233 234 233 232 232 231 230 233 238 240 240 241 243 246 248 251 255 258 261 264 267 271 274 277 280 282 286
210 212 214 214 213 214 216 214 213 215 218 222 222 222 222 224 227 229 229 231 230 225 218 212 209 207 206 207 210 213 215 217 218 220 222 226 230 233 234 235 234 234 232 231 234 237 239 241 243 245 248 251 254 256 259 262 264 268 271 274 276 278 281
210 212 214 216 214 214 218 220 219 216 215 218 223 224 224 224 226 228 230 233 234 233 230 224 219 214 212 212 213 214 217 219 221 223 223 224 226 229 231 234 236 237 236 234 234 237 239 241 244 246 248 251 253 256 257 260 263 265 269 271 272 274 275
211 211 214 217 216 216 218 220 222 221 218 219 223 225 225 224 225 226 227 230 232 234 235 234 229 222 217 216 216 216 217 220 223 225 227 227 228 229 230 232 234 236 238 237 236 237 239 240 243 245 248 250 253 255 257 258 261 264 266 268 269 270 271
210 211 213 216 218 217 217 219 221 221 220 222 224 225 225 225 225 225 225 225 228 232 235 236 235 231 225 220 218 217 218 221 224 226 228 230 231 232 232 233 234 235 236 238 238 239 240 241 242 244 247 249 252 254 256 258 261 263 265 267 268 269 269
212 213 214 217 219 219 218 219 221 222 223 227 227 226 227 228 226 225 226 225 224 227 232 235 236 235 233 228 222 219 219 222 225 227 229 230 231 233 234 235 236 236 236 237 238 241 242 243 243 245 247 248 251 252 255 257 259 262 265 266 267 268 268
214 214 215 217 219 222 221 220 222 224 225 228 229 228 229 230 229 228 228 227 224 225 229 233 236 238 237 234 229 224 222 222 225 229 230 231 232 233 234 236 238 239 239 239 239 241 243 245 246 248 249 250 252 253 254 256 258 261 263 265 266 267 267
215 214 215 215 216 218 220 220 221 223 224 227 229 230 229 229 230 229 229 228 227 226 228 231 234 237 238 238 236 231 227 225 227 231 233 233 233 233 235 236 238 240 241 241 241 241 243 246 248 250 250 251 253 254 255 256 257 259 261 263 264 265 266
217 217 218 218 217 218 218 218 220 223 224 226 228 229 229 229 229 229 227 227 226 226 227 229 232 234 236 238 238 238 234 231 231 233 235 236 236 234 234 235 236 238 240 242 242 243 244 245 247 248 249 250 252 254 255 256 257 257 259 261 262 263 264
219 220 220 219 218 218 219 218 220 223 225 226 227 228 229 229 228 228 226 225 225 226 226 228 231 233 235 237 240 242 242 240 237 235 236 238 239 237 236 236 237 237 238 240 241 243 244 245 246 246 247 249 251 253 254 255 256 257 258 260 261 262 263
219 220 220 218 216 217 219 219 219 221 223 225 226 227 229 229 229 228 227 225 225 226 227 228 230 232 234 236 240 243 245 245 244 240 238 238 240 241 239 238 238 238 238 240 240 241 243 244 245 246 247 248 250 252 253 254 255 256 257 258 259 260 262
217 219 220 218 216 216 218 219 219 220 221 222 224 225 227 228 228 229 228 226 226 226 226 228 229 231 233 235 238 241 244 245 246 245 242 241 241 241 241 239 239 238 238 239 239 240 242 243 245 246 247 248 250 251 252 254 254 255 256 258 259 260 261
217 218 219 217 216 216 216 218 219 220 220 221 222 224 226 227 227 228 228 227 227 227 228 229 231 232 233 235 237 239 242 244 245 245 244 244 243 243 242 240 239 238 238 238 239 240 241 243 244 246 247 248 249 251 252 253 254 254 255 257 258 259 260
217 217 218 216 216 215 215 216 218 219 220 221 221 223 224 226 226 227 227 228 228 229 230 231 233 234 235 236 237 238 240 242 243 243 243 244 245 245 244 242 241 240 239 239 238 239 240 242 243 245 246 247 249 251 252 253 254 254 255 257 258 259 260
217 217 217 216 215 215 215 216 217 218 219 220 220 221 222 224 226 226 226 227 227 228 230 232 233 235 235 236 237 238 239 240 241 242 242 243 244 245 245 245 244 243 241 240 239 240 241 242 242 244 245 247 249 250 252 253 254 255 255 257 258 259 260
217 216 216 215 215 215 215 215 216 217 219 221 221 221 221 223 225 224 224 226 226 226 228 231 233 234 235 236 238 239 239 240 241 241 241 242 242 244 245 246 246 245 244 243 242 242 243 244 244 244 244 245 247 249 251 253 254 256 256 257 258 259 259
216 216 216 216 215 215 216 216 216 218 220 221 221 221 222 223 224 223 223 225 225 226 227 229 232 233 235 236 238 239 240 241 241 242 242 242 242 243 244 245 247 248 247 246 245 244 245 246 248 248 248 248 248 249 249 251 253 254 256 257 258 259 259
216 216 216 217 216 216 217 217 217 219 221 221 222 222 222 223 223 223 223 224 224 225 225 228 231 232 234 235 237 239 240 241 242 243 244 244 244 245 245 246 247 249 249 249 248 247 247 247 248 250 251 251 252 252 252 251 252 253 254 256 257 258 259
216 216 216 217 217 216 216 217 218 220 222 222 222 222 222 223 223 223 223 223 224 225 225 227 230 232 233 235 236 238 240 242 244 245 246 247 247 247 248 248 249 250 251 251 251 250 249 249 249 249 250 251 252 255 256 256 255 254 253 254 256 258 259
216 217 216 217 217 216 216 217 218 221 222 223 223 223 222 222 222 223 224 223 224 225 225 226 229 231 233 235 236 237 239 241 243 245 247 248 250 250 249 250 250 251 252 253 252 252 252 251 250 250 251 251 251 253 257 259 258 256 254 253 255 256 257
214 217 217 217 217 217 217 217 219 221 223 224 224 224 223 222 222 223 224 223 224 226 226 227 228 231 233 235 235 237 239 241 243 245 247 249 250 251 250 250 251 252 253 254 255 255 255 254 253 252 252 252 251 251 254 257 260 259 257 254 254 255 256
213 215 216 217 217 217 217 218 219 221 223 224 224 223 223 222 222 223 224 223 224 226 227 228 229 231 233 235 236 238 240 242 245 247 248 250 252 252 252 251 251 252 253 255 256 257 257 258 257 255 254 252 251 250 251 253 256 259 259 257 256 256 256
212 214 216 216 216 216 217 218 219 221 222 223 223 223 222 222 223 224 225 224 225 228 229 229 229 231 234 236 238 240 242 244 247 249 251 253 254 254 254 253 252 253 254 255 257 258 259 259 258 257 256 254 252 251 250 250 252 255 257 258 259 258 258
213 213 214 215 216 216 217 218 219 220 221 222 222 222 222 223 224 225 225 225 226 229 230 230 230 232 235 237 239 241 243 245 248 250 252 254 256 256 255 254 254 253 254 255 256 258 258 258 258 258 257 256 254 253 252 251 252 253 255 258 260 261 262
214 213 213 214 215 216 217 219 219 220 221 221 221 222 223 224 225 226 226 226 226 229 230 230 230 232 235 238 240 241 243 245 248 250 253 255 256 256 255 255 254 254 254 255 256 257 258 258 258 258 258 257 256 255 254 253 253 254 255 257 260 262 264
215 214 213 213 215 216 218 219 220 220 220 221 222 223 224 225 225 226 227 226 226 228 230 230 230 232 235 238 239 241 243 245 248 250 252 254 255 255 255 254 253 253 253 254 255 256 257 257 258 257 257 257 257 257 256 255 255 255 255 257 259 260 262
215 214 213 213 214 216 218 219 220 220 220 222 223 224 225 226 226 227 227 226 227 229 230 229 231 233 235 237 239 241 243 245 247 250 252 253 254 255 254 254 252 252 252 253 254 255 256 256 257 258 258 258 258 258 258 257 256 255 255 256 257 258 260
215 215 214 214 214 216 217 218 219 220 221 222 224 225 226 226 227 227 226 226 226 228 229 230 232 234 236 238 240 242 244 246 248 250 252 253 254 254 254 253 251 251 251 252 253 254 255 256 257 257 257 258 258 258 258 257 257 256 256 256 256 257 259
215 215 215 215 215 216 217 218 219 220 221 222 223 225 227 227 227 227 227 226 226 228 229 230 232 234 236 238 240 242 244 246 248 250 252 253 255 255 254 253 251 250 251 251 253 254 255 255 256 257 257 257 258 257 257 257 257 256 256 257 257 258 259
215 215 215 215 216 216 217 218 219 220 221 222 224 225 227 228 228 228 228 228 228 230 231 232 233 235 237 239 241 243 245 246 248 250 252 254 255 256 255 254 253 252 252 252 254 255 256 256 256 256 257 257 257 257 257 257 257 258 258 258 259 259 260
216 216 216 216 216 217 218 218 220 221 221 222 224 225 227 228 229 229 229 230 231 232 233 234 235 237 238 240 242 243 245 247 249 250 252 254 255 256 255 255 254 253 253 253 254 256 257 257 257 257 257 257 257 257 258 258 259 259 260 260 260 260 260
216 216 217 217 216 218 220 221 221 222 223 224 225 225 227 228 230 230 231 232 233 234 235 236 237 239 240 242 243 245 246 247 248 250 252 254 255 255 256 255 254 253 252 253 254 256 257 257 258 258 258 258 259 259 261 261 261 261 262 262 261 261 262
Height
10969 10970 10972 10975 10977 10978 10980 10984 10987 10989 10990 10991 10991 10990 10989 10988 10988 10989 10991 10992 10994 10995 10996 10998 11000 11002 11004 11005 11007 11009 11011 11013 11015 11017 11018 11019 11020 11022 11023 11024 11025 11027 11028 11029 11030 11030 11031 11031 11032 11032 11032 11032 11032 11032 11032 11032 11032 11032 11032 11031 11031 11030 11030
10966 10969 10972 10974 10976 10976 10978 10981 10983 10985 10988 10989 10989 10989 10989 10988 10988 10988 10989 10991 10992 10994 10995 10997 10999 11001 11003 11005 11006 11008 11010 11012 11013 11015 11017 11018 11019 11021 11022 11023 11024 11026 11027 11028 11029 11030 11030 11031 11031 11031 11031 11032 11032 11032 11032 11032 11032 11032 11032 11031 11031 11030 11030
10963 10966 10969 10971 10972 10974 10976 10978 10980 10982 10985 10987 10987 10988 10989 10989 10988 10988 10988 10989 10991 10992 10994 10996 10997 10999 11001 11003 11005 11007 11009 11011 11012 11013 11015 11017 11018 11020 11021 11022 11023 11025 11026 11027 11028 11029 11030 11030 11030 11031 11031 11031 11031 11031 11031 11031 11031 11031 11031 11031 11031 11030 11030
10959 10962 10965 10967 10969 10971 10974 10977 10979 10980 10982 10984 10985 10987 10987 10988 10988 10987 10987 10988 10989 10990 10992 10993 10996 10998 11000 11001 11003 11005 11007 11009 11010 11012 11014 11015 11017 11018 11019 11021 11022 11023 11025 11026 11027 11028 11028 11029 11029 11030 11030 11030 11030 11030 11031 11031 11030 11031 11031 11030 11030 11030 11029
10956 10958 10961 10964 10967 10970 10974 10977 10979 10979 10980 10982 10983 10985 10985 10986 10986 10986 10986 10986 10987 10988 10990 10992 10994 10996 10998 11000 11001 11003 11005 11007 11009 11010 11012 11014 11015 11016 11017 11019 11020 11022 11023 11024 11025 11026 11027 11028 11028 11029 11029 11030 11030 11030 11030 11030 11030 11030 11030 11030 11030 11030 11029
10952 10955 10958 10961 10964 10967 10969 10972 10975 10976 10977 10979 10981 10982 10983 10984 10985 10985 10986 10986 10986 10987 10988 10990 10992 10993 10995 10997 10999 11001 11003 11005 11006 11008 11010 11012 11013 11014 11016 11017 11018 11020 11021 11022 11023 11024 11025 11026 11027 11028 11028 11029 11029 11029 11029 11029 11029 11029 11029 11029 11029 11029 11029
10948 10951 10955 10958 10961 10963 10964 10966 10968 10971 10975 10977 10978 10980 10981 10982 10983 10983 10984 10985 10985 10986 10986 10987 10989 10990 10992 10994 10996 10998 11000 11002 11004 11005 11007 11009 11011 11012 11014 11015 11016 11017 11019 11020 11021 11022 11023 11025 11025 11026 11027 11027 11028 11028 11028 11028 11028 11028 11028 11028 11028 11028 11028
10944 10947 10951 10955 10958 10960 10961 10962 10963 10966 10970 10974 10975 10976 10977 10979 10981 10982 10983 10984 10985 10985 10985 10986 10987 10988 10990 10991 10993 10995 10997 10999 11001 11003 11005 11006 11008 11010 11011 11013 11014 11015 11017 11018 11019 11020 11021 11023 11024 11024 11025 11026 11026 11027 11027 11027 11027 11027 11027 11027 11027 11027 11027
10939 10942 10946 10949 10953 10956 10957 10958 10960 10963 10966 10970 10972 10973 10975 10977 10978 10980 10981 10982 10983 10984 10984 10985 10985 10986 10988 10990 10991 10993 10995 10997 10999 11000 11002 11003 11005 11007 11009 11010 11012 11013 11014 11016 11017 11018 11019 11020 11021 11022 11023 11024 11024 11025 11025 11025 11025 11026 11026 11026 11026 11026 11025
10933 10938 10941 10944 10948 10952 10953 10955 10958 10961 10963 10966 10968 10970 10972 10974 10975 10977 10979 10980 10981 10982 10983 10984 10985 10985 10986 10988 10989 10991 10993 10995 10996 10998 10999 11001 11002 11004 11006 11007 11009 11011 11012 11013 11015 11016 11017 11018 11019 11020 11021 11022 11023 11023 11023 11023 11024 11024 11024 11024 11024 11024 11024
10927 10932 10935 10938 10942 10946 10949 10952 10954 10957 10959 10961 10963 10966 10969 10970 10972 10974 10976 10977 10979 10981 10982 10983 10983 10984 10985 10986 10988 10989 10991 10992 10994 10995 10996 10998 11000 11001 11003 11005 11006 11008 11009 11011 11012 11013 11014 11015 11017 11018 11019 11020 11020 11021 11021 11021 11021 11022 11022 11022 11023 11023 11022
10924 10928 10930 10934 10937 10940 10945 10948 10951 10954 10955 10957 10960 10963 10965 10967 10969 10971 10973 10975 10977 10979 10980 10981 10981 10982 10983 10984 10986 10987 10988 10990 10991 10992 10993 10995 10997 10999 11001 11002 11003 11005 11007 11008 11009 11010 11012 11013 11014 11016 11017 11017 11018 11018 11018 11019 11019 11020 11020 11020 11020 11020 11020
10920 10924 10926 10930 10933 10937 10942 10946 10949 10951 10953 10954 10957 10960 10962 10964 10966 10969 10970 10973 10975 10976 10978 10979 10979 10980 10981 10982 10984 10984 10986 10987 10988 10989 10990 10992 10994 10996 10998 11000 11001 11002 11004 11006 11007 11008 11009 11010 11012 11013 11014 11015 11015 11015 11016 11016 11017 11017 11018 11018 11018 11018 11018
10910 10914 10916 10921 10926 10931 10936 10941 10944 10946 10948 10951 10954 10956 10959 10961 10963 10966 10968 10970 10972 10974 10975 10976 10977 10978 10979 10980 10981 10982 10983 10984 10985 10986 10988 10990 10992 10994 10996 10997 10998 11000 11001 11002 11004 11005 11006 11008 11009 11011 11012 11012 11012 11013 11013 11014 11014 11015 11015 11015 11015 11015 11016
10902 10905 10909 10916 10922 10926 10931 10936 10938 10941 10943 10947 10950 10952 10955 10957 10960 10962 10964 10967 10969 10970 10971 10973 10974 10975 10976 10977 10978 10979 10980 10981 10983 10984 10985 10987 10989 10991 10992 10993 10995 10997 10998 10999 11001 11002 11004 11005 11006 11008 11009 11009 11010 11010 11010 11011 11012 11012 11012 11012 11012 11013 11013
10896 10901 10908 10915 10920 10925 10929 10932 10935 10937 10939 10943 10946 10948 10950 10953 10956 10958 10960 10962 10964 10966 10967 10969 10971 10972 10973 10975 10975 10977 10978 10980 10980 10982 10983 10984 10985 10987 10989 10990 10992 10993 10995 10996 10997 10999 11000 11002 11003 11004 11005 11006 11007 11007 11007 11008 11009 11009 11009 11009 11009 11010 11010
10890 10896 10903 10909 10915 10920 10924 10927 10930 10932 10935 10938 10941 10943 10946 10949 10951 10953 10956 10958 10960 10962 10964 10965 10967 10968 10970 10972 10973 10974 10976 10977 10978 10979 10980 10981 10982 10983 10985 10987 10988 10990 10991 10992 10994 10995 10997 10998 10999 11001 11002 11003 11004 11004 11004 11005 11006 11007 11006 11006 11006 11007 11007
10886 10891 10898 10903 10909 10914 10917 10921 10924 10926 10929 10932 10935 10938 10941 10944 10947 10949 10952 10954 10955 10957 10959 10961 10962 10964 10966 10968 10970 10971 10973 10974 10975 10976 10977 10978 10979 10980 10981 10983 10984 10986 10987 10988 10990 10991 10993 10994 10995 10997 10999 11000 11000 11000 11001 11002 11003 11004 11003 11003 11003 11004 11004
10883 10887 10892 10898 10903 10907 10912 10916 10919 10921 10923 10927 10930 10933 10935 10938 10942 10945 10947 10949 10951 10953 10955 10957 10959 10961 10963 10965 10966 10967 10969 10970 10972 10973 10974 10975 10975 10976 10978 10979 10980 10981 10982 10984 10986 10987 10989 10990 10991 10993 10995 10996 10996 10996 10997 10998 10999 11000 11000 11000 11000 11001 11001
10876 10881 10886 10891 10897 10901 10905 10909 10911 10914 10917 10921 10924 10927 10930 10933 10937 10940 10943 10946 10948 10951 10953 10954 10956 10958 10960 10961 10962 10963 10965 10967 10968 10969 10970 10971 10972 10973 10974 10975 10976 10977 10978 10980 10982 10983 10984 10985 10987 10988 10990 10991 10991 10992 10994 10994 10995 10996 10996 10996 10996 10997 10997
10868 10875 10879 10885 10891 10895 10898 10901 10904 10907 10910 10914 10917 10920 10924 10929 10932 10935 10939 10942 10945 10947 10948 10950 10952 10954 10955 10956 10958 10959 10961 10962 10963 10964 10966 10967 10968 10969 10970 10971 10972 10973 10974 10976 10977 10978 10979 10981 10982 10984 10985 10986 10987 10988 10990 10990 10991 10992 10992 10992 10993 10993 10993
10861 10868 10873 10879 10885 10888 10892 10895 10898 10901 10903 10907 10911 10915 10920 10923 10926 10930 10934 10937 10939 10942 10944 10946 10948 10949 10951 10952 10953 10955 10956 10958 10959 10960 10961 10962 10963 10965 10966 10967 10967 10968 10970 10971 10973 10974 10975 10977 10978 10979 10980 10981 10982 10984 10985 10986 10987 10988 10988 10988 10988 10989 10988
10854 10861 10867 10873 10879 10883 10886 10889 10892 10894 10896 10900 10906 10911 10914 10917 10920 10925 10929 10932 10935 10937 10939 10941 10943 10944 10946 10947 10949 10950 10952 10953 10954 10955 10956 10958 10959 10960 10961 10962 10963 10965 10966 10968 10969 10970 10971 10972 10974 10975 10976 10977 10978 10979 10981 10982 10982 10983 10984 10984 10984 10984 10984
10846 10854 10861 10867 10872 10877 10881 10885 10887 10887 10889 10895 10900 10905 10908 10911 10916 10920 10923 10927 10929 10932 10934 10936 10937 10939 10941 10942 10944 10946 10947 10948 10949 10951 10952 10953 10954 10955 10956 10958 10959 10961 10962 10964 10965 10966 10967 10968 10970 10971 10972 10973 10974 10975 10976 10978 10978 10978 10979 10979 10978 10978 10979
10840 10847 10854 10860 10865 10871 10875 10879 10880 10880 10883 10889 10894 10899 10903 10907 10912 10915 10918 10921 10923 10926 10929 10930 10931 10933 10934 10937 10939 10941 10942 10943 10944 10946 10947 10948 10949 10951 10952 10954 10955 10957 10958 10960 10961 10962 10963 10964 10966 10967 10968 10969 10971 10971 10972 10973 10973 10973 10973 10973 10973 10973 10974
10834 10840 10847 10853 10858 10864 10868 10871 10872 10873 10878 10883 10888 10893 10897 10902 10907 10910 10912 10916 10918 10920 10923 10924 10925 10927 10929 10932 10934 10936 10937 10938 10939 10941 10942 10944 10945 10947 10948 10949 10951 10952 10954 10955 10956 10957 10958 10960 10962 10962 10963 10965 10967 10967 10968 10969 10969 10967 10968 10968 10968 10968 10968
10828 10834 10841 10846 10851 10857 10861 10864 10866 10868 10872 10878 10883 10888 10893 10898 10902 10904 10906 10910 10913 10914 10915 10917 10920 10922 10924 10927 10929 10930 10931 10933 10934 10936 10938 10939 10941 10942 10944 10945 10946 10947 10948 10950 10952 10953 10954 10956 10957 10958 10959 10961 10962 10963 10963 10964 10964 10962 10963 10963 10962 10962 10962
10823 10828 10833 10839 10845 10851 10854 10857 10860 10863 10867 10873 10878 10884 10889 10893 10895 10897 10901 10905 10906 10906 10908 10912 10916 10917 10918 10920 10922 10924 10927 10928 10930 10932 10934 10935 10936 10938 10939 10940 10941 10943 10944 10945 10947 10948 10950 10951 10953 10954 10955 10956 10957 10957 10958 10959 10958 10957 10957 10957 10957 10956 10956
10816 10821 10827 10833 10839 10844 10847 10851 10854 10857 10863 10868 10874 10879 10883 10886 10888 10891 10895 10898 10899 10900 10904 10909 10911 10912 10913 10915 10917 10920 10922 10924 10926 10928 10929 10931 10932 10933 10935 10936 10937 10938 10939 10941 10943 10944 10945 10946 10947 10948 10949 10950 10951 10951 10952 10953 10953 10953 10952 10952 10952 10951 10951
10808 10814 10820 10826 10832 10838 10842 10845 10848 10852 10858 10863 10868 10872 10876 10879 10882 10885 10888 10892 10894 10896 10900 10903 10906 10907 10908 10910 10913 10916 10918 10920 10922 10923 10925 10926 10927 10929 10930 10931 10932 10933 10934 10936 10938 10939 10940 10941 10942 10942 10943 10944 10944 10945 10946 10947 10948 10948 10947 10948 10948 10947 10947
10799 10806 10813 10820 10826 10832 10835 10838 10842 10847 10853 10858 10863 10867 10870 10873 10876 10878 10882 10887 10890 10891 10894 10897 10900 10901 10902 10904 10908 10911 10913 10915 10917 10919 10920 10921 10922 10924 10924 10926 10927 10928 10929 10931 10932 10933 10934 10935 10936 10936 10937 10937 10938 10939 10940 10941 10942 10942 10943 10943 10943 10943 10942
10790 10799 10807 10814 10820 10825 10829 10832 10837 10843 10849 10853 10857 10860 10864 10867 10870 10873 10878 10883 10884 10885 10888 10892 10894 10895 10896 10899 10902 10905 10908 10910 10912 10914 10915 10916 10917 10918 10919 10920 10922 10922 10924 10926 10927 10928 10928 10929 10930 10930 10931 10931 10932 10933 10934 10935 10936 10937 10937 10938 10939 10938 10938
10782 10791 10800 10808 10814 10818 10822 10827 10832 10839 10844 10847 10850 10854 10857 10860 10864 10868 10873 10877 10878 10879 10883 10886 10887 10888 10890 10893 10897 10900 10903 10905 10907 10908 10910 10911 10912 10913 10914 10915 10916 10917 10918 10920 10921 10922 10922 10923 10924 10924 10925 10925 10927 10928 10929 10929 10930 10931 10931 10932 10933 10933 10933
10775 10785 10793 10801 10807 10812 10816 10822 10828 10833 10837 10841 10845 10849 10851 10854 10858 10862 10866 10870 10871 10874 10877 10879 10880 10882 10885 10888 10892 10895 10897 10900 10901 10902 10904 10905 10906 10907 10908 10909 10911 10911 10913 10914 10915 10916 10917 10917 10918 10918 10919 10920 10921 10922 10923 10923 10923 10924 10925 10926 10927 10928 10929
10769 10778 10786 10794 10800 10805 10811 10817 10823 10828 10833 10837 10840 10842 10845 10848 10852 10855 10859 10863 10866 10868 10870 10872 10874 10876 10879 10883 10886 10889 10892 10894 10895 10896 10897 10899 10900 10902 10903 10904 10905 10906 10907 10909 10910 10910 10911 10912 10912 10913 10913 10914 10915 10916 10917 10916 10917 10918 10919 10920 10921 10922 10924
10762 10771 10780 10787 10793 10800 10806 10812 10817 10822 10827 10831 10834 10837 10840 10843 10847 10850 10854 10857 10860 10862 10864 10866 10868 10871 10874 10878 10881 10884 10886 10887 10889 10890 10892 10893 10895 10896 10896 10898 10899 10900 10902 10904 10904 10904 10905 10906 10907 10907 10907 10909 10909 10909 10910 10910 10911 10912 10914 10915 10916 10917 10918
10757 10766 10773 10780 10788 10796 10802 10807 10812 10816 10820 10823 10828 10832 10835 10838 10841 10844 10848 10852 10854 10856 10858 10860 10862 10865 10869 10872 10875 10878 10880 10881 10883 10884 10886 10888 10889 10890 10891 10892 10894 10895 10897 10898 10898 10899 10900 10900 10901 10901 10902 10903 10902 10903 10904 10905 10906 10907 10909 10910 10911 10911 10912
10752 10761 10768 10775 10785 10794 10801 10804 10807 10811 10814 10818 10822 10826 10829 10832 10835 10838 10843 10846 10848 10850 10851 10854 10857 10860 10863 10867 10870 10873 10874 10875 10877 10878 10879 10882 10883 10884 10885 10887 10889 10890 10891 10891 10892 10893 10894 10894 10895 10896 10896 10897 10896 10897 10898 10900 10901 10902 10903 10904 10905 10905 10905